This is the latest recevied weather packets stored in our database for station/object W5ADC. If no packets are shown the sender has not sent any weather packets the latest 10 day(s).
| Time | Temp. | Humidity | Pressure | Rain* | Wind** | Luminosity | Snow |
|---|---|---|---|---|---|---|---|
| 1777850354 | 26.67° C | 33% | 1012 hPa | 0 mm | - | 131 W/m² | - |
| 1777850052 | 26.67° C | 32% | 1011.9 hPa | 0 mm | - | 192 W/m² | - |
| 1777849748 | 27.22° C | 33% | 1011.9 hPa | 0 mm | - | 195 W/m² | - |
| 1777849444 | 27.22° C | 33% | 1012.1 hPa | 0 mm | - | 228 W/m² | - |
| 1777849142 | 27.22° C | 33% | 1012 hPa | 0 mm | - | 245 W/m² | - |
| 1777848838 | 26.67° C | 33% | 1012 hPa | 0 mm | - | 257 W/m² | - |
| 1777848534 | 26.67° C | 33% | 1012 hPa | 0 mm | - | 273 W/m² | - |
| 1777848231 | 27.22° C | 33% | 1012 hPa | 0 mm | - | 295 W/m² | - |
| 1777847929 | 26.67° C | 33% | 1011.9 hPa | 0 mm | - | 314 W/m² | - |
| 1777847627 | 27.78° C | 32% | 1012.1 hPa | 0 mm | - | 322 W/m² | - |
| 1777847322 | 27.78° C | 33% | 1012.3 hPa | 0 mm | - | 339 W/m² | - |
| 1777847021 | 27.22° C | 32% | 1012.4 hPa | 0 mm | - | 354 W/m² | - |
| 1777846719 | 27.22° C | 30% | 1012.3 hPa | 0 mm | - | 366 W/m² | - |
| 1777846417 | 27.22° C | 31% | 1012.7 hPa | 0 mm | - | 385 W/m² | - |
| 1777846112 | 27.22° C | 31% | 1012.5 hPa | 0 mm | - | 403 W/m² | - |
| 1777845810 | 27.22° C | 32% | 1012.6 hPa | 0 mm | - | 417 W/m² | - |
| 1777845507 | 27.22° C | 32% | 1012.5 hPa | 0 mm | - | 437 W/m² | - |
| 1777845204 | 27.22° C | 31% | 1012.5 hPa | 0 mm | - | 453 W/m² | - |
| 1777844902 | 27.22° C | 31% | 1012.6 hPa | 0 mm | - | 473 W/m² | - |
| 1777844599 | 27.22° C | 30% | 1012.7 hPa | 0 mm | - | 482 W/m² | - |
| 1777844296 | 27.22° C | 32% | 1012.7 hPa | 0 mm | - | 500 W/m² | - |
| 1777843994 | 27.22° C | 32% | 1012.9 hPa | 0 mm | - | 513 W/m² | - |
| 1777843690 | 27.22° C | 32% | 1012.9 hPa | 0 mm | - | 525 W/m² | - |
| 1777843388 | 27.78° C | 31% | 1012.9 hPa | 0 mm | - | 539 W/m² | - |
| 1777843085 | 27.22° C | 32% | 1013 hPa | 0 mm | - | 553 W/m² | - |
* Rain latest hour (hover to see other rain measurements)
** Current wind speed in m/s (hover to see current wind gust speed)